Location: La Silve
(44.2414°N, 5.8889°E)
Time: 03:27:43
(UTC+00:00)

Tiangong - Pass Details

Date: 23 June 2021
Orbit: 373 x 386 km, 41.5° (Epoch: 01 August)

Event Time Altitude Azimuth Distance (km) Brightness Sun altitude
Exits shadow 02:55:11 12° 240° (WSW) 1,271 3.1 -8.8°
Maximum altitude 02:57:52 42° 170° (S) 559 1.6 -8.5°
Drops below altitude 10° 03:00:52 10° 97° (E) 1,399 4.5 -8.1°
Sets 03:03:00 0° 91° (E) 2,256 5.7 -7.8°
